DW9907 Weather Reports


Display with metric or nautical units.
time (UTC)temp
F
wind
direction
speed
MPH
gust
MPH
rain 1hr
in
rain 24hr
in
rain mn
in
humidity
%
barometer
mb
20260506204534 48 185 5.0 10.0 0.00 0.19 0.16 75 1018.4
20260506203030 48 185 4.0 10.0 0.00 0.19 0.16 74 1018.3
20260506201532 48 185 3.0 8.0 0.00 0.19 0.16 76 1018.3
20260506200040 47 185 3.0 11.0 0.00 0.19 0.16 77 1018.3
20260506194530 47 185 5.0 13.0 0.00 0.19 0.16 76 1018.4
20260506193031 47 185 8.0 14.0 0.00 0.19 0.16 78 1018.3
20260506191531 47 185 8.0 14.0 0.00 0.19 0.16 81 1018.6
20260506190029 46 185 5.0 12.0 0.00 0.19 0.16 85 1018.7
20260506184533 45 185 6.0 12.0 0.00 0.19 0.16 86 1018.8
20260506183035 44 185 7.0 16.0 0.00 0.19 0.16 86 1019.1
20260506181528 45 185 5.0 10.0 0.00 0.19 0.16 88 1019.1
20260506180028 44 185 8.0 14.0 0.00 0.19 0.16 88 1019.1
20260506174529 44 185 5.0 14.0 0.00 0.19 0.16 88 1019.1
20260506173033 45 185 9.0 15.0 0.00 0.19 0.16 87 1019.2
20260506171529 45 185 5.0 12.0 0.00 0.19 0.16 88 1019.1
20260506170030 45 185 5.0 10.0 0.00 0.19 0.16 89 1019.0
20260506164527 45 185 4.0 12.0 0.00 0.19 0.16 91 1018.9
20260506163030 44 185 9.0 12.0 0.00 0.19 0.16 93 1018.6
20260506161528 44 185 5.0 10.0 0.00 0.19 0.16 93 1018.6
20260506160028 43 185 4.0 9.0 0.00 0.19 0.16 93 1018.7
20260506154533 43 185 3.0 8.0 0.01 0.19 0.16 93 1018.4
20260506153031 42 185 3.0 10.0 0.02 0.19 0.16 93 1018.3
20260506151528 42 185 7.0 10.0 0.02 0.19 0.16 93 1018.4
20260506150028 41 185 7.0 10.0 0.02 0.19 0.16 93 1018.1
20260506144532 42 185 3.0 8.0 0.01 0.18 0.15 94 1018.1
20260506143034 42 185 5.0 8.0 0.00 0.17 0.14 94 1018.2
20260506141529 41 185 3.0 5.0 0.00 0.17 0.14 94 1018.5
20260506140029 41 185 1.0 5.0 0.00 0.17 0.14 94 1018.6
20260506134530 41 0 2.0 5.0 0.00 0.17 0.14 94 1018.3
20260506133032 41 185 1.0 4.0 0.00 0.17 0.14 94 1018.2
20260506131536 41 185 0.0 3.0 0.00 0.17 0.14 94 1018.2
20260506130029 41 0 0.0 3.0 0.00 0.17 0.14 94 1017.6
20260506124536 41 185 0.0 8.0 0.00 0.17 0.14 94 1017.5
20260506123039 40 185 3.0 8.0 0.00 0.17 0.14 94 1016.8
20260506121530 40 185 2.0 6.0 0.00 0.17 0.14 94 1016.7
20260506120052 40 185 4.0 9.0 0.00 0.17 0.14 94 1016.6
20260506114532 40 185 1.0 6.0 0.00 0.17 0.14 93 1016.5
20260506113032 40 185 3.0 5.0 0.00 0.17 0.14 93 1016.1
20260506111532 40 185 1.0 4.0 0.00 0.17 0.14 93 1016.2
20260506110030 40 0 2.0 5.0 0.00 0.17 0.14 93 1015.9
20260506104530 40 185 1.0 4.0 0.00 0.17 0.14 93 1015.7
20260506103032 40 185 1.0 6.0 0.00 0.17 0.14 93 1015.4
20260506101530 40 185 6.0 9.0 0.00 0.17 0.14 93 1015.1
20260506100030 40 185 4.0 8.0 0.00 0.17 0.14 93 1014.9
20260506094534 40 185 5.0 10.0 0.01 0.17 0.14 93 1015.2
20260506093043 40 185 5.0 9.0 0.01 0.17 0.14 93 1015.3
20260506091528 40 185 6.0 11.0 0.01 0.17 0.14 93 1015.3
20260506090029 40 185 6.0 12.0 0.01 0.17 0.14 93 1015.3
20260506084532 40 185 6.0 11.0 0.00 0.16 0.13 93 1015.2
20260506083031 39 185 6.0 15.0 0.00 0.16 0.13 92 1015.3
20260506081529 39 185 7.0 14.0 0.00 0.16 0.13 92 1015.8
20260506073031 39 185 9.0 15.0 0.02 0.16 0.13 92 1015.5
20260506071532 39 185 9.0 15.0 0.04 0.16 0.13 92 1015.4
20260506061534 40 180 8.0 13.0 0.08 0.12 0.09 91 1016.4
20260506044537 40 185 11.0 19.0 0.01 0.02 0.02 87 1013.5
20260506043029 41 185 15.0 22.0 0.00 0.01 0.01 87 1013.4
20260506041531 41 185 12.0 17.0 0.01 0.01 0.01 86 1013.9
20260506040030 41 185 9.0 18.0 0.01 0.01 0.01 85 1013.9
20260506034528 42 185 12.0 18.0 0.01 0.01 0.01 84 1013.1
20260506033032 42 185 12.0 17.0 0.01 0.01 0.01 82 1013.0
20260506031537 43 185 14.0 23.0 0.00 0.00 0.00 79 1013.0
20260506030029 44 185 13.0 19.0 0.00 0.00 0.00 71 1012.6
20260506024534 45 185 14.0 22.0 0.00 0.00 0.00 68 1012.6
20260506023028 45 185 12.0 22.0 0.00 0.00 0.00 68 1012.7
20260506021532 46 185 16.0 22.0 0.00 0.00 0.00 67 1012.4
20260506020031 46 185 14.0 22.0 0.00 0.00 0.00 65 1012.1
20260506014530 47 185 11.0 21.0 0.00 0.00 0.00 63 1012.1
20260506013031 47 185 13.0 20.0 0.00 0.00 0.00 61 1011.8
20260506011531 48 185 12.0 21.0 0.00 0.00 0.00 59 1011.7
20260506010032 48 185 15.0 20.0 0.00 0.00 0.00 58 1011.7
20260506004554 49 185 11.0 17.0 0.00 0.00 0.00 57 1011.8
20260506003032 49 185 9.0 18.0 0.00 0.00 0.00 57 1011.6
20260506001531 49 185 12.0 20.0 0.00 0.00 0.00 56 1011.5
20260506000029 50 185 15.0 20.0 0.00 0.00 0.00 56 1011.5
20260505234601 50 185 12.0 17.0 0.00 0.00 0.00 56 1011.7
20260505233028 50 185 13.0 19.0 0.00 0.00 0.00 55 1011.5
20260505231535 51 185 17.0 24.0 0.00 0.00 0.00 55 1010.8
20260505230027 52 185 13.0 22.0 0.00 0.00 0.00 54 1010.7
20260505224532 53 185 13.0 21.0 0.00 0.00 0.00 52 1010.7
20260505223031 53 185 12.0 23.0 0.00 0.00 0.00 52 1010.6
20260505221528 53 185 12.0 22.0 0.00 0.00 0.00 51 1010.4
20260505220028 54 185 14.0 22.0 0.00 0.00 0.00 51 1010.4
20260505214537 54 185 15.0 24.0 0.00 0.00 0.00 50 1010.2
20260505213029 55 185 12.0 23.0 0.00 0.00 0.00 49 1010.3
20260505211531 56 185 17.0 24.0 0.00 0.00 0.00 49 1010.1
20260505210031 54 185 15.0 23.0 0.00 0.00 0.00 52 1010.7